North Bend, OR

3:47 PM PST on February 05, 2016 (GMT -0800)
North Bend Municipal

Weather History for KOTH - December, 2012

Change the Weather History Date:

Saturday, December 8, 2012

  Actual Average Record
Temperature  
Mean Temperature 47 °F 46 °F  
Max Temperature 52 °F 51 °F 66 °F (1962)
Min Temperature 41 °F 40 °F 15 °F (1972)
Degree Days  
Heating Degree Days 18 20  
Month to date heating degree days 118 153  
Since 1 July heating degree days 1404 1605  
Cooling Degree Days 0 0  
Month to date cooling degree days 0 0  
Year to date cooling degree days 1 2  
Moisture  
Dew Point 43 °F    
Average Humidity 95    
Maximum Humidity 100    
Minimum Humidity 74    
Precipitation  
Precipitation 0.00 in 0.37 in 1.45 in (1963)
Month to date precipitation 2.84 3.02  
Year to date precipitation 46.34 56.80  
Sea Level Pressure  
Sea Level Pressure 30.32 in    
Wind  
Wind Speed 3 mph (SE)    
Max Wind Speed 7 mph    
Max Gust Speed -    
Visibility 9 miles    
Events      
T = Trace of Precipitation, MM = Missing Value Source: NWS Daily Summary

Daily Weather History Graph

Daily Weather History Graph

Search for Another Location

Airport or City:

Trip Planner

Search our weather history database for the weather conditions in past years. The results will help you decide how hot, cold, wet, or windy it might be!

Date:

Astronomy

Dec. 08, 2012 Rise Set
Actual Time 7:37 AM PST 4:40 PM PST
Civil Twilight 7:05 AM PST 5:13 PM PST
Nautical Twilight 6:29 AM PST 5:49 PM PST
Astronomical Twilight 5:54 AM PST 6:23 PM PST
Moon 2:01 AM PST (12/8) 1:20 PM PST (12/8)
Length of Visible Light 10h 08m
Length of Day
9h 03m
Waning Crescent, 27% of the Moon is Illuminated
Dec 8
Waning Crescent
Dec 13
New
Dec 19
First Quarter
Dec 28
Full
Jan 4
Last Quarter

Hourly Weather History & Observations

Time (PST) Temp. Windchill Dew Point Humidity Pressure Visibility Wind Dir Wind Speed Gust Speed Precip Events Conditions
12:15 AM 46.4 °F - 46.4 °F 100% 30.28 in 10.0 mi Calm Calm - N/A   Unknown
12:35 AM 46.4 °F - 46.4 °F 100% 30.27 in 7.0 mi Calm Calm - N/A   Unknown
12:55 AM 44.6 °F - 44.6 °F 100% 30.27 in 2.5 mi Calm Calm - N/A   Unknown
1:15 AM 44.6 °F - 42.8 °F 93% 30.28 in 0.8 mi Calm Calm - N/A   Unknown
1:35 AM 44.6 °F - 42.8 °F 93% 30.27 in 1.0 mi Calm Calm - N/A   Unknown
1:55 AM 44.6 °F - 44.6 °F 100% 30.28 in 0.2 mi Calm Calm - N/A   Unknown
2:15 AM 44.6 °F 43.1 °F 44.6 °F 100% 30.28 in 0.2 mi ESE 3.5 mph - N/A   Unknown
2:35 AM 44.6 °F 43.1 °F 42.8 °F 93% 30.28 in 7.0 mi ESE 3.5 mph - N/A   Unknown
3:15 AM 44.6 °F 41.4 °F 44.6 °F 100% 30.27 in 10.0 mi ESE 5.8 mph - N/A   Unknown
3:35 AM 44.6 °F 42.2 °F 44.6 °F 100% 30.27 in 10.0 mi ESE 4.6 mph - N/A   Unknown
3:55 AM 44.6 °F 43.1 °F 44.6 °F 100% 30.27 in 10.0 mi SE 3.5 mph - N/A   Unknown
4:15 AM 44.6 °F 43.1 °F 44.6 °F 100% 30.27 in 10.0 mi ESE 3.5 mph - N/A   Unknown
4:35 AM 44.6 °F 42.2 °F 44.6 °F 100% 30.28 in 10.0 mi SE 4.6 mph - N/A   Unknown
4:55 AM 42.8 °F 41.1 °F 42.8 °F 100% 30.28 in 10.0 mi ESE 3.5 mph - N/A   Unknown
5:15 AM 42.8 °F 41.1 °F 42.8 °F 100% 30.28 in 10.0 mi ESE 3.5 mph - N/A   Unknown
5:35 AM 42.8 °F - 42.8 °F 100% 30.29 in 10.0 mi Calm Calm - N/A   Unknown
5:55 AM 42.8 °F 41.1 °F 42.8 °F 100% 30.29 in 10.0 mi SSE 3.5 mph - N/A   Unknown
6:15 AM 42.8 °F 40.1 °F 42.8 °F 100% 30.29 in 10.0 mi SE 4.6 mph - N/A   Unknown
6:35 AM 42.8 °F 39.3 °F 42.8 °F 100% 30.29 in 10.0 mi SE 5.8 mph - N/A   Unknown
6:55 AM 41.0 °F 37.1 °F 41.0 °F 100% 30.29 in 10.0 mi SSE 5.8 mph - N/A   Unknown
7:15 AM 42.8 °F 40.1 °F 42.8 °F 100% 30.29 in 10.0 mi SE 4.6 mph - N/A   Mostly Cloudy
7:35 AM 41.0 °F 38.0 °F 39.2 °F 93% 30.30 in 10.0 mi SE 4.6 mph - N/A   Mostly Cloudy
7:55 AM 41.0 °F 39.0 °F 41.0 °F 100% 30.29 in 10.0 mi SSE 3.5 mph - N/A   Scattered Clouds
8:15 AM 41.0 °F 37.1 °F 39.2 °F 93% 30.30 in 10.0 mi SSE 5.8 mph - N/A   Scattered Clouds
8:35 AM 42.8 °F 38.0 °F 41.0 °F 93% 30.31 in 10.0 mi SSE 8.1 mph - N/A   Mostly Cloudy
8:55 AM 42.8 °F 39.3 °F 42.8 °F 100% 30.32 in 10.0 mi SE 5.8 mph - N/A   Mostly Cloudy
9:15 AM 42.8 °F 39.3 °F 42.8 °F 100% 30.32 in 10.0 mi SE 5.8 mph - N/A   Mostly Cloudy
9:35 AM 42.8 °F 39.3 °F 42.8 °F 100% 30.33 in 10.0 mi SE 5.8 mph - N/A   Mostly Cloudy
9:55 AM 44.6 °F 40.7 °F 42.8 °F 93% 30.33 in 10.0 mi SE 6.9 mph - N/A   Mostly Cloudy
10:15 AM 44.6 °F 40.2 °F 44.6 °F 100% 30.34 in 10.0 mi SSE 8.1 mph - N/A   Mostly Cloudy
10:35 AM 44.6 °F 40.2 °F 44.6 °F 100% 30.34 in 10.0 mi SE 8.1 mph - N/A   Mostly Cloudy
10:55 AM 46.4 °F 43.5 °F 44.6 °F 93% 30.34 in 10.0 mi ESE 5.8 mph - N/A   Scattered Clouds
11:15 AM 46.4 °F 44.3 °F 44.6 °F 93% 30.34 in 10.0 mi SE 4.6 mph - N/A   Scattered Clouds
11:35 AM 48.2 °F - 44.6 °F 87% 30.34 in 10.0 mi SE 4.6 mph - N/A   Scattered Clouds
11:55 AM 48.2 °F - 46.4 °F 93% 30.34 in 10.0 mi Calm Calm - N/A   Scattered Clouds
12:35 PM 48.2 °F - 46.4 °F 93% 30.33 in 10.0 mi Calm Calm - N/A   Scattered Clouds
12:55 PM 48.2 °F - 44.6 °F 87% 30.33 in 10.0 mi Calm Calm - N/A   Scattered Clouds
1:15 PM 50.0 °F - 44.6 °F 82% 30.32 in 10.0 mi SE 3.5 mph - N/A   Scattered Clouds
1:35 PM 50.0 °F - 44.6 °F 82% 30.33 in 10.0 mi Calm Calm - N/A   Scattered Clouds
1:55 PM 50.0 °F - 42.8 °F 76% 30.32 in 10.0 mi Calm Calm - N/A   Scattered Clouds
2:15 PM 50.0 °F - 44.6 °F 82% 30.32 in 10.0 mi Calm Calm - N/A   Scattered Clouds
2:35 PM 50.0 °F - 44.6 °F 82% 30.32 in 10.0 mi Calm Calm - N/A   Scattered Clouds
2:55 PM 51.8 °F - 44.6 °F 76% 30.32 in 10.0 mi Calm Calm - N/A   Scattered Clouds
3:15 PM 48.2 °F - 44.6 °F 87% 30.32 in 10.0 mi NE 4.6 mph - N/A   Scattered Clouds
3:35 PM 48.2 °F - 44.6 °F 87% 30.32 in 10.0 mi Calm Calm - N/A   Scattered Clouds
3:55 PM 48.2 °F - 44.6 °F 87% 30.32 in 10.0 mi Calm Calm - N/A   Scattered Clouds
4:15 PM 48.2 °F - 44.6 °F 87% 30.32 in 10.0 mi Calm Calm - N/A   Scattered Clouds
4:35 PM 46.4 °F 44.3 °F 44.6 °F 93% 30.32 in 10.0 mi NNE 4.6 mph - N/A   Scattered Clouds
4:55 PM 46.4 °F 44.3 °F 44.6 °F 93% 30.33 in 10.0 mi NNE 4.6 mph - N/A   Scattered Clouds
5:15 PM 46.4 °F - 44.6 °F 93% 30.33 in 10.0 mi Calm Calm - N/A   Scattered Clouds
5:35 PM 46.4 °F 45.2 °F 46.4 °F 100% 30.33 in 10.0 mi ENE 3.5 mph - N/A   Scattered Clouds
5:55 PM 46.4 °F - 44.6 °F 93% 30.33 in 10.0 mi Calm Calm - N/A   Scattered Clouds
6:15 PM 42.8 °F 40.1 °F 41.0 °F 93% 30.33 in 10.0 mi SSE 4.6 mph - N/A   Scattered Clouds
6:35 PM 44.6 °F 43.1 °F 42.8 °F 93% 30.34 in 10.0 mi East 3.5 mph - N/A   Scattered Clouds
6:55 PM 42.8 °F 41.1 °F 42.8 °F 100% 30.34 in 10.0 mi ESE 3.5 mph - N/A   Scattered Clouds
7:15 PM 42.8 °F 41.1 °F 42.8 °F 100% 30.35 in 10.0 mi SE 3.5 mph - N/A   Scattered Clouds
7:35 PM 42.8 °F 40.1 °F 42.8 °F 100% 30.35 in 10.0 mi SE 4.6 mph - N/A   Scattered Clouds
7:55 PM 42.8 °F 41.1 °F 42.8 °F 100% 30.35 in 10.0 mi SE 3.5 mph - N/A   Scattered Clouds
8:15 PM 42.8 °F 41.1 °F 42.8 °F 100% 30.35 in 3.0 mi SSE 3.5 mph - N/A   Mostly Cloudy
8:35 PM 42.8 °F 41.1 °F 41.0 °F 93% 30.36 in 5.0 mi SE 3.5 mph - N/A   Scattered Clouds
8:55 PM 42.8 °F - 41.0 °F 93% 30.36 in 5.0 mi Calm Calm - N/A   Scattered Clouds
9:15 PM 42.8 °F 40.1 °F 41.0 °F 93% 30.36 in 10.0 mi SE 4.6 mph - N/A   Scattered Clouds
9:35 PM 42.8 °F 39.3 °F 41.0 °F 93% 30.36 in 10.0 mi SE 5.8 mph - N/A   Scattered Clouds
9:55 PM 42.8 °F 40.1 °F 42.8 °F 100% 30.36 in 10.0 mi SSE 4.6 mph - N/A   Scattered Clouds
10:15 PM 42.8 °F 41.1 °F 41.0 °F 93% 30.37 in 10.0 mi SSE 3.5 mph - N/A   Unknown
10:35 PM 42.8 °F 39.3 °F 42.8 °F 100% 30.37 in 10.0 mi SE 5.8 mph - N/A   Unknown
10:55 PM 42.8 °F 40.1 °F 42.8 °F 100% 30.37 in 10.0 mi SSE 4.6 mph - N/A   Unknown
11:15 PM 42.8 °F 41.1 °F 42.8 °F 100% 30.38 in 10.0 mi SE 3.5 mph - N/A   Unknown
11:35 PM 42.8 °F 40.1 °F 42.8 °F 100% 30.38 in 10.0 mi SE 4.6 mph - N/A   Unknown
11:55 PM 42.8 °F 39.3 °F 41.0 °F 93% 30.38 in 10.0 mi SSE 5.8 mph - N/A   Unknown